[[{"header":{"parameterUnit":"m.s-1","parameterCategory":1,"la1":30.2991,"la2":30.254,"lo1":-89.0895,"lo2":-89.0444,"dy":0.0017,"dx":0.0017,"nx":28,"ny":28,"refTime":"2025-08-16T09:00:00:Z","depth":0,"parameterNumber":2,"parameterNumberName":"U-component_of_WINDS"},"data":[0,0,0,0,0,0,0,0,0,0,0,0,0,0,0,0,0,0,0,0,0,0,0,0,0,0,0,0,0,0,0,0,0,0,0,0,0,0,0,0,0,0,0,0,0,0,0,0,0,0,0,0,0,0,0,0,0,0,-0.3224,-0.3227,0,-0.3443,-0.3445,-0.3448,-0.3571,-0.3572,-0.3572,-0.3572,-0.3787,-0.3792,-0.3798,0,0,0,0,0,0,0,0,0,0,0,0,0,-0.2907,-0.2913,-0.3224,-0.3227,-0.323,-0.3442,-0.3445,-0.3448,-0.3571,-0.3572,-0.3572,-0.3573,-0.3785,-0.3792,-0.3798,0,0,0,0,0,0,0,0,0,0,0,0,0,-0.3077,-0.2914,-0.3224,-0.3317,-0.3327,-0.3442,-0.3446,-0.3449,-0.3571,-0.3572,-0.3572,-0.3573,-0.3783,-0.3791,-0.3799,-0.3835,0,0,-0.3823,-0.3827,0,0,0,0,0,0,0,0,-0.3067,-0.3089,-0.33,-0.331,-0.3322,-0.3481,-0.3413,-0.3578,-0.3571,-0.3478,-0.3572,-0.3573,-0.3684,-0.37,-0.374,-0.3845,-0.3855,-0.3824,-0.3829,-0.3832,-0.3835,0,0,0,0,0,0,0,-0.3055,-0.308,-0.331,-0.3303,-0.3317,-0.3346,-0.3371,-0.3445,-0.3574,-0.3486,-0.3496,-0.352,-0.369,-0.3732,-0.3745,-0.3858,-0.3824,-0.3831,-0.3836,-0.3839,-0.4007,-0.4007,0,0,0,0,0,0,-0.303,-0.3069,-0.3304,-0.3317,-0.3194,-0.3351,-0.3379,-0.3429,-0.3574,-0.3597,-0.352,-0.3525,-0.3718,-0.3736,-0.3753,-0.3809,-0.3832,-0.384,-0.3844,-0.4008,-0.4007,-0.4007,0,0,0,0,0,0,-0.3022,-0.3049,-0.3295,-0.3196,-0.3229,-0.3356,-0.3411,-0.3433,-0.3475,-0.36,-0.3622,-0.3539,-0.3719,-0.3742,-0.3816,-0.3817,-0.3843,-0.3851,-0.4008,-0.4008,-0.4007,-0.3916,0,0,0,0,0,0,-0.3013,-0.3046,-0.3062,-0.3195,-0.3234,-0.3355,-0.3411,-0.3437,-0.3489,-0.3499,-0.3623,-0.3644,-0.3721,-0.3803,-0.3823,-0.3829,-0.3857,-0.4009,-0.4008,-0.4007,-0.392,-0.3913,-0.3907,0,0,0,0,0,-0.3001,-0.3025,-0.3062,-0.309,-0.3258,-0.3354,-0.3376,-0.3467,-0.3489,-0.3506,-0.3586,-0.364,-0.3814,-0.3809,-0.3833,-0.3841,-0.4009,-0.4008,-0.4007,-0.3922,-0.3914,-0.3907,0,0,0,0,0,0,-0.2885,-0.3044,-0.3087,-0.3156,-0.3241,-0.3375,-0.3399,-0.3454,-0.3533,-0.3538,-0.3644,-0.3671,-0.3735,-0.3795,-0.3788,-0.3886,-0.3917,-0.3921,-0.3844,-0.3837,-0.3831,-0.3815,-0.3863,0,0,0,0,0,-0.2868,-0.2936,-0.307,-0.3117,-0.3159,-0.3271,-0.3317,-0.338,-0.3471,-0.3507,-0.3593,-0.3677,-0.3751,-0.3797,-0.3872,-0.3929,-0.3958,-0.3946,-0.3939,-0.3934,-0.3936,-0.3973,-0.397,-0.4005,-0.4005,-0.4005,0,0,-0.2833,-0.2928,-0.2964,-0.3097,-0.317,-0.3237,-0.3301,-0.3367,-0.3418,-0.3516,-0.3592,-0.3658,-0.3759,-0.3825,-0.3858,-0.3877,-0.3933,-0.3933,-0.3927,-0.3933,-0.3972,-0.3969,-0.3965,-0.4004,-0.4004,-0.4005,0,0,-0.2803,-0.2881,-0.2931,-0.3005,-0.3117,-0.3192,-0.3204,-0.3331,-0.3379,-0.3458,-0.3534,-0.3594,-0.3718,-0.3789,-0.384,-0.384,-0.3893,-0.3861,-0.3828,-0.3862,-0.386,-0.3858,-0.386,-0.3859,-0.3863,-0.3863,-0.3863,0,-0.2744,-0.285,-0.2949,-0.3013,-0.307,-0.3166,-0.3217,-0.3282,-0.3411,-0.3447,-0.3468,-0.3629,-0.3703,-0.3789,-0.3789,-0.3827,-0.3844,-0.3848,-0.3853,-0.3852,-0.3851,-0.3854,-0.3854,-0.3858,-0.3859,-0.3859,-0.386,0,-0.2773,-0.2845,-0.2871,-0.2998,-0.3058,-0.3114,-0.3221,-0.3269,-0.3327,-0.34,-0.3479,-0.3573,-0.367,-0.3694,-0.3749,-0.3788,-0.3797,-0.3833,-0.3867,-0.3842,-0.3847,-0.3848,-0.3852,-0.3853,-0.3855,-0.3856,0,0,-0.2675,-0.2859,-0.2867,-0.2927,-0.3059,-0.3116,-0.3177,-0.3275,-0.3315,-0.3401,-0.3455,-0.356,-0.3596,-0.3655,-0.3719,-0.3749,-0.3746,-0.3783,-0.3787,-0.3774,-0.3796,-0.3769,-0.3768,-0.3782,-0.3782,-0.3783,-0.3788,0,-0.2666,-0.2784,-0.2876,-0.2958,-0.3027,-0.312,-0.3174,-0.326,-0.3329,-0.3396,-0.3472,-0.3546,-0.3587,-0.3624,-0.3658,-0.3739,-0.3752,-0.374,-0.3833,-0.3835,-0.3806,-0.3771,-0.3741,-0.3742,-0.379,-0.3791,-0.3791,0,-0.267,-0.2758,-0.2848,-0.2976,-0.3008,-0.3055,-0.3154,-0.3217,-0.3316,-0.3365,-0.3432,-0.35,-0.3568,-0.3595,-0.369,-0.368,-0.3723,-0.3769,-0.3771,-0.3784,-0.3812,-0.3784,-0.3744,-0.3744,-0.3794,-0.3794,-0.3794,0,-0.2593,-0.2732,-0.2805,-0.2853,-0.3003,-0.3035,-0.3098,-0.3199,-0.3253,-0.3338,-0.3374,-0.3465,-0.3514,-0.3582,-0.3672,-0.3684,-0.3759,-0.3793,-0.3801,-0.3799,-0.3813,-0.3811,-0.3781,-0.3838,-0.3838,-0.3838,-0.3838,0,-0.2573,-0.2625,-0.2773,-0.2818,-0.2879,-0.2984,-0.3041,-0.3112,-0.3201,-0.3261,-0.3345,-0.3399,-0.3514,-0.3581,-0.3651,-0.3721,-0.3742,-0.3782,-0.3801,-0.3776,-0.3771,-0.3806,-0.3809,-0.3838,-0.3838,-0.3838,-0.3838,0,-0.2497,-0.2598,-0.2684,-0.2821,-0.2856,-0.2895,-0.3012,-0.3058,-0.3134,-0.3209,-0.3232,-0.3349,-0.3433,-0.353,-0.3644,-0.3692,-0.3756,-0.3782,-0.3723,-0.3734,-0.3737,-0.3736,-0.373,-0.3735,-0.3787,-0.3786,-0.3785,0,-0.2478,-0.2522,-0.2664,-0.2712,-0.2774,-0.2849,-0.2906,-0.3011,-0.3066,-0.3185,-0.3217,-0.3308,-0.3387,-0.3516,-0.361,-0.3699,-0.3728,-0.372,-0.3742,-0.3716,-0.373,-0.3727,-0.3732,-0.3714,-0.3713,-0.3712,-0.3711,0,-0.2436,-0.2485,-0.2565,-0.2663,-0.273,-0.2812,-0.2897,-0.293,-0.3052,-0.311,-0.3199,-0.326,-0.3379,-0.3469,-0.357,-0.3633,-0.3692,-0.3704,-0.3711,-0.3686,-0.3651,-0.3672,-0.3709,-0.3703,-0.3704,-0.3705,-0.3705,-0.3705,-0.239,-0.2433,-0.2542,-0.2629,-0.2705,-0.2783,-0.2835,-0.2918,-0.2995,-0.3103,-0.316,-0.3248,-0.3348,-0.349,-0.3552,-0.3621,-0.3641,-0.365,-0.3653,-0.3654,-0.3648,-0.364,-0.3639,-0.364,-0.364,-0.364,-0.3641,0,-0.2353,-0.2428,-0.2507,-0.2626,-0.2694,-0.2748,-0.2845,-0.2898,-0.2976,-0.3066,-0.3143,-0.3246,-0.3334,-0.3436,-0.353,-0.3566,-0.3596,-0.3587,-0.3586,-0.36,-0.3623,-0.3609,-0.3562,-0.3562,-0.3562,-0.3562,-0.3562,-0.3562,-0.2342,-0.242,-0.2482,-0.2598,-0.2672,-0.2762,-0.2813,-0.2886,-0.2959,-0.3071,-0.3146,-0.3213,-0.3308,-0.3411,-0.3494,-0.3521,-0.3552,-0.3536,-0.3572,-0.3591,-0.3598,-0.3604,-0.3592,-0.3542,-0.3542,-0.3543,-0.3543,-0.3543]},{"header":{"parameterUnit":"m.s-1","parameterCategory":1,"la1":30.2991,"la2":30.254,"lo1":-89.0895,"lo2":-89.0444,"dy":0.0017,"dx":0.0017,"nx":28,"ny":28,"refTime":"2025-08-16T09:00:00:Z","depth":0,"parameterNumber":3,"parameterNumberName":"V-component_of_WINDS"},"data":[0,0,0,0,0,0,0,0,0,0,0,0,0,0,0,0,0,0,0,0,0,0,0,0,0,0,0,0,0,0,0,0,0,0,0,0,0,0,0,0,0,0,0,0,0,0,0,0,0,0,0,0,0,0,0,0,0,0,3.4503,3.4504,0,3.46,3.4601,3.4602,3.4663,3.4664,3.4664,3.4664,3.4755,3.4757,3.4759,0,0,0,0,0,0,0,0,0,0,0,0,0,3.4358,3.436,3.4503,3.4505,3.4506,3.46,3.4601,3.4602,3.4663,3.4664,3.4664,3.4664,3.4755,3.4757,3.476,0,0,0,0,0,0,0,0,0,0,0,0,0,3.4434,3.4361,3.4503,3.4548,3.4553,3.46,3.4601,3.4603,3.4663,3.4664,3.4664,3.4665,3.4754,3.4757,3.476,3.4768,0,0,3.4769,3.4771,0,0,0,0,0,0,0,0,3.443,3.4439,3.454,3.4545,3.455,3.462,3.4583,3.4658,3.4663,3.4621,3.4664,3.4665,3.4709,3.4716,3.4733,3.4772,3.4776,3.477,3.4772,3.4773,3.4774,0,0,0,0,0,0,0,3.4424,3.4435,3.4541,3.4541,3.4547,3.4558,3.457,3.4598,3.466,3.4625,3.4629,3.464,3.4712,3.473,3.4735,3.4777,3.477,3.4772,3.4774,3.4775,3.4818,3.4818,0,0,0,0,0,0,3.4413,3.4431,3.4538,3.4544,3.449,3.456,3.4573,3.4597,3.4661,3.4671,3.464,3.4643,3.4724,3.4732,3.4739,3.4747,3.4773,3.4776,3.4778,3.4819,3.4818,3.4817,0,0,0,0,0,0,3.441,3.4423,3.4534,3.4489,3.4504,3.4562,3.4589,3.4599,3.4617,3.4672,3.4682,3.4647,3.4725,3.4734,3.4759,3.4751,3.4777,3.478,3.482,3.4819,3.4818,3.4767,0,0,0,0,0,0,3.4406,3.4421,3.4429,3.4489,3.4506,3.4557,3.4588,3.46,3.4623,3.4627,3.4682,3.4691,3.4726,3.4754,3.4762,3.4756,3.4782,3.4821,3.4819,3.4818,3.477,3.4765,3.476,0,0,0,0,0,3.44,3.4411,3.4429,3.4442,3.4518,3.4557,3.4566,3.4609,3.4622,3.4627,3.4661,3.4689,3.4751,3.4756,3.4765,3.4761,3.4821,3.482,3.4818,3.4772,3.4766,3.476,0,0,0,0,0,0,3.4349,3.442,3.4441,3.4472,3.4508,3.4567,3.4576,3.4602,3.4633,3.4636,3.4685,3.4696,3.4714,3.474,3.4744,3.4767,3.4789,3.4789,3.475,3.4745,3.474,3.4733,3.4785,0,0,0,0,0,3.4341,3.4371,3.443,3.4451,3.4468,3.4518,3.4537,3.4566,3.4604,3.4619,3.4656,3.4688,3.4714,3.4731,3.4759,3.4773,3.4782,3.4773,3.4768,3.4764,3.4763,3.4765,3.4761,3.4812,3.4812,3.4812,0,0,3.4326,3.4368,3.4384,3.4442,3.4473,3.4497,3.4531,3.4558,3.4574,3.4622,3.4647,3.4674,3.4713,3.473,3.474,3.4752,3.475,3.4762,3.4758,3.476,3.4763,3.4758,3.4754,3.4811,3.4811,3.4811,0,0,3.431,3.4347,3.4366,3.4395,3.4441,3.4473,3.4477,3.453,3.455,3.4576,3.461,3.4628,3.4674,3.4698,3.4717,3.4699,3.4723,3.4706,3.468,3.4682,3.4678,3.4674,3.4663,3.4659,3.4705,3.4705,3.4705,0,3.4285,3.4327,3.4372,3.4394,3.4415,3.4459,3.4474,3.4499,3.4551,3.4562,3.4575,3.4628,3.4658,3.4679,3.4673,3.4688,3.4689,3.4701,3.4675,3.4672,3.4669,3.4659,3.4656,3.4702,3.4702,3.4703,3.4703,0,3.429,3.4317,3.4326,3.4375,3.4396,3.4415,3.4457,3.4473,3.4496,3.4525,3.4545,3.4581,3.4614,3.462,3.4645,3.4641,3.4647,3.4667,3.469,3.4661,3.4652,3.4649,3.4698,3.4699,3.47,3.4701,0,0,3.4252,3.4318,3.4321,3.4339,3.4389,3.4409,3.4424,3.4457,3.4467,3.4498,3.4509,3.4543,3.4559,3.4579,3.4606,3.4607,3.4583,3.4626,3.4627,3.4614,3.4574,3.4558,3.4553,3.4599,3.4598,3.4598,3.4569,0,3.4241,3.4277,3.4313,3.4334,3.4355,3.4392,3.4404,3.4433,3.4457,3.4475,3.4501,3.4522,3.4545,3.4556,3.4559,3.4586,3.4575,3.4588,3.4605,3.4606,3.4594,3.455,3.4535,3.4506,3.4567,3.4566,3.4566,0,3.4237,3.4264,3.4287,3.4326,3.4337,3.4349,3.4376,3.4395,3.4424,3.444,3.4459,3.4485,3.4498,3.4517,3.4531,3.4539,3.4547,3.456,3.456,3.4563,3.4584,3.4548,3.4499,3.4494,3.4562,3.4562,3.4562,0,3.4201,3.4244,3.4261,3.4276,3.4324,3.433,3.435,3.438,3.4394,3.4416,3.4424,3.4447,3.4459,3.4474,3.4503,3.4516,3.4512,3.4535,3.4522,3.4521,3.4521,3.452,3.447,3.4528,3.4528,3.4528,3.4528,0,3.4185,3.4197,3.4245,3.4256,3.4266,3.4303,3.4312,3.4334,3.4358,3.4369,3.4401,3.441,3.4449,3.446,3.4483,3.4487,3.4494,3.4504,3.4509,3.4501,3.4499,3.4507,3.4508,3.4527,3.4527,3.4528,3.4528,0,3.4149,3.4183,3.4203,3.4244,3.4254,3.4259,3.4292,3.43,3.4323,3.4336,3.4341,3.4376,3.439,3.442,3.4444,3.4458,3.4456,3.4467,3.4447,3.445,3.4434,3.4434,3.4386,3.4379,3.4443,3.4442,3.4442,0,3.4138,3.4147,3.4186,3.4196,3.4214,3.423,3.4243,3.4277,3.4288,3.4317,3.432,3.4336,3.4352,3.4371,3.4397,3.4412,3.4422,3.4404,3.4425,3.4413,3.4418,3.4417,3.4415,3.44,3.4399,3.4398,3.4397,0,3.4111,3.4124,3.4144,3.4165,3.4179,3.4198,3.4219,3.4224,3.426,3.427,3.4285,3.4297,3.4317,3.4331,3.4349,3.4364,3.4384,3.439,3.4387,3.4378,3.4364,3.4367,3.4432,3.4391,3.4392,3.4393,3.4393,3.4393,3.4085,3.4091,3.4118,3.4135,3.4153,3.4169,3.4176,3.4198,3.4211,3.4232,3.4249,3.426,3.428,3.4306,3.4318,3.4324,3.4335,3.4332,3.4331,3.4329,3.4323,3.4363,3.4327,3.4328,3.4328,3.4328,3.4328,0,3.4057,3.4074,3.4089,3.4114,3.4125,3.4144,3.4164,3.4171,3.4181,3.4199,3.4212,3.4224,3.4235,3.4258,3.427,3.427,3.4279,3.4271,3.4271,3.4273,3.4315,3.4315,3.4263,3.4263,3.4263,3.4263,3.4263,3.4263,3.4044,3.4054,3.4069,3.4084,3.4101,3.4113,3.4122,3.4134,3.4147,3.416,3.4169,3.4183,3.4201,3.4213,3.4221,3.4227,3.4229,3.4217,3.4226,3.4265,3.4271,3.4277,3.4277,3.4218,3.4218,3.4183,3.4183,3.4183]}]]